{"data":{"norad_id":41189,"intl_designator":"2015-081L","name":"ORBCOMM FM116","alt_names":[],"object_type":"PAYLOAD","status":"ACTIVE","operator":null,"country":"ORB","launch_date":"2015-12-22","launch_site_code":"AFETR","launch_vehicle":null,"mission":null,"orbit_class":"UNKNOWN","rcs_meters":0.55,"size_class":null,"mass_kg":null,"dimensions":null,"purposes":["comms"],"wikipedia_slug":null,"has_3d_model":false,"image_url":null,"decayed_at":null,"tle_current":{"epoch":"2026-09-20T03:39:04.792320Z","epoch_age_seconds":44582,"freshness":"FRESH","line1":"1 41189U 15081L   26263.15213880  .00000303  00000+0  10014-3 0  9999","line2":"2 41189  47.0016 181.5736 0000736 151.8603 208.2323 14.58964253572803","mean_motion":14.58964253,"eccentricity":7.36e-5,"inclination_deg":47.0016,"raan_deg":181.5736,"arg_perigee_deg":151.8603,"mean_anomaly_deg":208.2323,"bstar":0.00010014,"rev_number":57280,"period_min":98.70015643214,"perigee_km":695.99960514039,"apogee_km":697.04099469494,"semimajor_km":7074.6572999177,"source":"CELESTRAK","updated_at":"2026-09-20T09:00:44.912279Z"}}}